Location: Appleton
(44.2618°N, 88.4157°W)
Time: 16:08:13
(UTC+00:00)

Vanguard 2 - Visible Passes

Search period start: 27 February 2021 00:00
Search period end: 09 March 2021 00:00
Orbit: 552 x 2938 km, 32.9° (Epoch: 26 February)

Date Brightness Start Highest point End Pass type
(mag) Time Alt. Az. Time Alt. Az. Time Alt. Az.
27 Feb 11.1 09:01:15 21° S 09:08:12 29° SE 09:21:52 10° E visible
27 Feb 10.9 11:02:53 10° SW 11:18:36 49° SSE 11:34:32 10° E visible
28 Feb 11.6 07:16:45 12° SE 07:16:50 12° SE 07:21:22 10° ESE visible
28 Feb 10.9 09:18:09 25° S 09:25:25 35° SSE 09:40:17 10° E visible
28 Feb 10.8 11:20:14 10° WSW 11:36:13 53° SSE 11:52:22 10° E visible
01 Mar 11.3 07:33:35 17° SE 07:33:44 17° SE 07:42:46 10° E visible
01 Mar 10.8 09:34:59 27° SSW 09:42:44 40° SSE 09:58:27 10° E visible
01 Mar 10.8 11:37:42 10° WSW 11:53:54 56° S 12:10:07 10° ESE visible
02 Mar 11.1 07:50:20 23° SE 07:50:42 23° SE 08:02:14 10° E visible
02 Mar 10.7 09:51:44 27° SSW 10:00:09 46° SSE 10:16:29 10° E visible
02 Mar 10.8 11:55:17 10° WSW 12:11:36 57° S 12:27:49 10° ESE visible
03 Mar 10.9 08:07:02 28° SE 08:07:45 29° SE 08:20:59 10° E visible
03 Mar 10.6 10:08:26 26° SW 10:17:40 50° SSE 10:34:24 10° E visible
04 Mar 10.6 08:23:40 34° SSE 08:24:55 34° SSE 08:39:23 10° E visible
04 Mar 10.6 10:25:04 24° SW 10:35:16 53° SSE 10:52:14 10° E visible
05 Mar 11.5 06:38:53 13° ESE 06:38:53 13° ESE 06:41:26 10° E visible
05 Mar 10.4 08:40:16 39° SSE 08:42:12 40° SSE 08:57:32 10° E visible
05 Mar 10.6 10:41:39 21° WSW 10:52:55 56° S 11:10:01 10° ESE visible
06 Mar 11.3 06:55:27 18° ESE 06:55:27 18° ESE 07:00:53 10° E visible
06 Mar 10.2 08:56:50 42° S 08:59:35 45° SSE 09:15:33 10° E visible
06 Mar 10.6 10:58:13 17° WSW 11:10:37 56° S 11:27:43 10° ESE visible
07 Mar 11.0 07:12:00 24° ESE 07:12:00 24° ESE 07:19:36 10° E visible
07 Mar 10.1 09:13:23 43° SSW 09:17:05 49° SSE 09:33:29 10° E visible
07 Mar 10.6 11:14:46 14° WSW 11:28:18 55° S 11:45:19 10° ESE visible
08 Mar 10.8 07:28:32 29° ESE 07:28:32 29° ESE 07:37:58 10° E visible
08 Mar 10.1 09:29:55 41° SSW 09:34:39 52° S 09:51:20 10° E visible
08 Mar 10.7 11:31:20 10° W 11:45:59 52° S 12:02:49 10° ESE visible
